GW6014 Weather Reports


Display with metric or nautical units.
time (UTC)temp
F
wind
direction
speed
MPH
gust
MPH
rain 1hr
in
rain 24hr
in
rain mn
in
humidity
%
barometer
mb
20260906012523 85 35 0.0 0.0 0.00 0.00 0.00 65 1013.5
20260906012023 85 23 1.0 1.0 0.00 0.00 0.00 64 1013.5
20260906011519 85 40 0.0 1.0 0.00 0.00 0.00 64 1013.3
20260906011019 85 39 1.0 2.0 0.00 0.00 0.00 63 1013.4
20260906010515 85 49 1.0 2.0 0.00 0.00 0.00 63 1013.3
20260906010011 84 34 0.0 1.0 0.00 0.00 0.00 64 1013.4
20260906005510 84 28 1.0 1.0 0.00 0.00 0.00 65 1013.2
20260906005009 85 34 0.0 1.0 0.00 0.00 0.00 64 1013.2
20260906004508 85 34 0.0 0.0 0.00 0.00 0.00 63 1013.0
20260906004003 86 34 0.0 0.0 0.00 0.00 0.00 61 1013.0
20260906003459 86 35 0.0 0.0 0.00 0.00 0.00 61 1013.0
20260906002954 87 34 0.0 1.0 0.00 0.00 0.00 59 1013.1
20260906002454 87 25 0.0 0.0 0.00 0.00 0.00 58 1013.1
20260906001949 88 29 0.0 0.0 0.00 0.00 0.00 57 1013.3
20260906001445 88 42 0.0 0.0 0.00 0.00 0.00 56 1013.2
20260906000940 88 28 0.0 0.0 0.00 0.00 0.00 57 1013.4
20260906000436 89 21 0.0 0.0 0.00 0.00 0.00 55 1013.3
20260905235930 89 26 1.0 1.0 0.00 0.00 0.00 54 1013.1
20260905235430 89 26 1.0 1.0 0.00 0.00 0.00 53 1013.3
20260905234925 89 51 0.0 0.0 0.00 0.00 0.00 52 1013.4
20260905234421 90 43 1.0 1.0 0.00 0.00 0.00 51 1013.3
20260905233920 90 49 1.0 1.0 0.00 0.00 0.00 51 1013.4
20260905233416 90 34 0.0 1.0 0.00 0.00 0.00 51 1013.3
20260905232915 91 38 1.0 1.0 0.00 0.00 0.00 49 1013.3
20260905232411 91 27 0.0 1.0 0.00 0.00 0.00 50 1013.3
20260905231906 91 55 0.0 2.0 0.00 0.00 0.00 50 1013.1
20260905231402 91 51 1.0 3.0 0.00 0.00 0.00 49 1013.3
20260905230859 91 18 2.0 6.0 0.00 0.00 0.00 49 1013.3
20260905230356 92 98 2.0 4.0 0.00 0.00 0.00 50 1013.5
20260905225850 92 32 2.0 7.0 0.00 0.00 0.00 50 1013.6
20260905225344 93 31 5.0 9.0 0.00 0.00 0.00 49 1013.5
20260905224839 94 42 5.0 9.0 0.00 0.00 0.00 49 1013.4
20260905224335 95 43 5.0 10.0 0.00 0.00 0.00 49 1013.4
20260905223830 96 24 1.0 7.0 0.00 0.00 0.00 48 1013.1
20260905223328 97 14 6.0 10.0 0.00 0.00 0.00 45 1013.1
20260905222823 97 50 2.0 4.0 0.00 0.00 0.00 44 1013.2
20260905222321 97 38 2.0 6.0 0.00 0.00 0.00 43 1013.2
20260905221817 98 28 2.0 4.0 0.00 0.00 0.00 42 1013.2
20260905221314 98 44 3.0 6.0 0.00 0.00 0.00 42 1013.1
20260905220809 99 16 3.0 7.0 0.00 0.00 0.00 41 1013.1
20260905220306 99 8 3.0 6.0 0.00 0.00 0.00 41 1013.1
20260905215804 98 31 1.0 3.0 0.00 0.00 0.00 43 1013.0
20260905215300 98 7 4.0 6.0 0.00 0.00 0.00 42 1013.0
20260905214756 98 55 1.0 4.0 0.00 0.00 0.00 43 1012.8
20260905214252 98 73 4.0 6.0 0.00 0.00 0.00 43 1012.9
20260905213747 98 72 4.0 8.0 0.00 0.00 0.00 43 1012.9
20260905213243 98 357 5.0 8.0 0.00 0.00 0.00 43 1012.7
20260905212738 98 51 5.0 9.0 0.00 0.00 0.00 43 1013.0
20260905212237 99 58 4.0 9.0 0.00 0.00 0.00 43 1013.0
20260905211737 99 33 4.0 9.0 0.00 0.00 0.00 43 1013.1
20260905211232 99 20 3.0 6.0 0.00 0.00 0.00 43 1013.0
20260905210729 101 30 4.0 8.0 0.00 0.00 0.00 41 1013.2
20260905210228 101 282 3.0 4.0 0.00 0.00 0.00 40 1012.9
20260905205727 100 337 2.0 3.0 0.00 0.00 0.00 41 1013.1
20260905205222 100 25 3.0 4.0 0.00 0.00 0.00 41 1013.4
20260905204722 99 51 1.0 2.0 0.00 0.00 0.00 42 1013.0
20260905204218 99 25 2.0 4.0 0.00 0.00 0.00 41 1013.4
20260905203711 100 14 1.0 4.0 0.00 0.00 0.00 40 1013.3
20260905203207 102 49 5.0 8.0 0.00 0.00 0.00 38 1013.1
20260905202703 102 22 4.0 7.0 0.00 0.00 0.00 38 1013.0
20260905202157 101 64 1.0 6.0 0.00 0.00 0.00 38 1013.4
20260905201653 102 9 4.0 6.0 0.00 0.00 0.00 38 1013.4
20260905201153 102 298 1.0 4.0 0.00 0.00 0.00 39 1013.3
20260905200648 102 276 2.0 7.0 0.00 0.00 0.00 40 1013.4
20260905200144 102 74 1.0 6.0 0.00 0.00 0.00 39 1013.6
20260905195642 102 240 3.0 6.0 0.00 0.00 0.00 38 1013.8
20260905195137 101 322 2.0 8.0 0.00 0.00 0.00 40 1013.6
20260905194632 101 216 2.0 6.0 0.00 0.00 0.00 39 1013.8
20260905194131 101 352 2.0 7.0 0.00 0.00 0.00 41 1013.7
20260905193627 102 14 2.0 4.0 0.00 0.00 0.00 39 1013.6
20260905193127 102 336 4.0 8.0 0.00 0.00 0.00 39 1013.8
20260905192622 101 23 2.0 4.0 0.00 0.00 0.00 39 1014.0
20260905192119 101 47 2.0 6.0 0.00 0.00 0.00 38 1014.1
20260905191618 101 225 1.0 7.0 0.00 0.00 0.00 38 1014.3
20260905191116 102 218 3.0 6.0 0.00 0.00 0.00 38 1014.3
20260905190615 101 258 3.0 8.0 0.00 0.00 0.00 40 1014.3
20260905190114 102 10 3.0 6.0 0.00 0.00 0.00 37 1014.2
20260905185613 101 293 4.0 4.0 0.00 0.00 0.00 41 1014.5
20260905185108 101 202 5.0 7.0 0.00 0.00 0.00 40 1014.2
20260905184602 101 317 1.0 4.0 0.00 0.00 0.00 42 1014.5
20260905184101 100 21 2.0 8.0 0.00 0.00 0.00 43 1014.5
20260905183601 100 44 1.0 4.0 0.00 0.00 0.00 44 1014.5
20260905183057 100 10 2.0 6.0 0.00 0.00 0.00 43 1014.6
20260905182556 100 356 4.0 7.0 0.00 0.00 0.00 43 1014.8
20260905182051 100 266 6.0 8.0 0.00 0.00 0.00 43 1014.9
20260905181550 100 213 3.0 6.0 0.00 0.00 0.00 44 1015.0
20260905181044 100 326 3.0 3.0 0.00 0.00 0.00 44 1015.0
20260905180544 99 327 0.0 3.0 0.00 0.00 0.00 46 1014.9
20260905180040 100 248 3.0 6.0 0.00 0.00 0.00 46 1014.9
20260905175539 99 325 0.0 4.0 0.00 0.00 0.00 49 1015.0
20260905175035 99 219 2.0 4.0 0.00 0.00 0.00 47 1014.9
20260905174530 99 26 2.0 4.0 0.00 0.00 0.00 47 1015.0
20260905174026 99 281 2.0 4.0 0.00 0.00 0.00 48 1014.9
20260905173522 97 347 0.0 3.0 0.00 0.00 0.00 48 1015.0
20260905173017 98 51 3.0 4.0 0.00 0.00 0.00 47 1015.1
20260905172515 98 314 3.0 4.0 0.00 0.00 0.00 48 1014.9
20260905172011 98 17 2.0 3.0 0.00 0.00 0.00 48 1015.2
20260905171508 97 19 3.0 4.0 0.00 0.00 0.00 48 1015.3
20260905171004 98 294 2.0 4.0 0.00 0.00 0.00 48 1015.2
20260905170500 97 357 1.0 1.0 0.00 0.00 0.00 49 1015.3
20260905170000 96 337 0.0 2.0 0.00 0.00 0.00 50 1015.3
20260905165455 96 40 2.0 4.0 0.00 0.00 0.00 51 1015.5
20260905164950 96 27 1.0 3.0 0.00 0.00 0.00 50 1015.5
20260905164449 95 294 2.0 3.0 0.00 0.00 0.00 53 1015.5
20260905163944 95 37 2.0 6.0 0.00 0.00 0.00 53 1015.8
20260905163441 96 64 4.0 6.0 0.00 0.00 0.00 51 1015.7
20260905162937 94 214 2.0 3.0 0.00 0.00 0.00 53 1015.8
20260905162432 95 319 1.0 3.0 0.00 0.00 0.00 53 1015.6
20260905161927 94 271 4.0 4.0 0.00 0.00 0.00 54 1015.8
20260905161426 94 36 2.0 3.0 0.00 0.00 0.00 55 1015.8
20260905160924 93 306 1.0 2.0 0.00 0.00 0.00 54 1015.9
20260905160419 93 45 2.0 4.0 0.00 0.00 0.00 55 1015.9
20260905155918 93 249 3.0 6.0 0.00 0.00 0.00 55 1016.1
20260905155418 93 308 1.0 2.0 0.00 0.00 0.00 55 1016.0
20260905154917 92 47 3.0 4.0 0.00 0.00 0.00 56 1016.0
20260905154413 92 271 2.0 4.0 0.00 0.00 0.00 57 1016.0
20260905153908 92 237 1.0 4.0 0.00 0.00 0.00 57 1016.1
20260905153404 92 225 2.0 3.0 0.00 0.00 0.00 58 1015.8
20260905152904 92 247 2.0 3.0 0.00 0.00 0.00 58 1016.0
20260905152403 92 268 1.0 3.0 0.00 0.00 0.00 58 1016.0
20260905151858 92 300 2.0 2.0 0.00 0.00 0.00 59 1015.8
20260905151355 92 281 2.0 3.0 0.00 0.00 0.00 58 1015.9
20260905150855 92 303 1.0 7.0 0.00 0.00 0.00 58 1015.9
20260905150354 91 64 0.0 2.0 0.00 0.00 0.00 61 1016.0
20260905145851 90 345 2.0 4.0 0.00 0.00 0.00 61 1015.9
20260905145346 90 236 2.0 3.0 0.00 0.00 0.00 63 1015.9
20260905144845 89 60 0.0 2.0 0.00 0.00 0.00 63 1015.9
20260905144341 89 215 1.0 2.0 0.00 0.00 0.00 64 1016.0
20260905143839 88 282 2.0 3.0 0.00 0.00 0.00 65 1015.8
20260905143334 88 286 2.0 3.0 0.00 0.00 0.00 65 1015.8
20260905142833 87 19 0.0 1.0 0.00 0.00 0.00 66 1016.0
20260905142327 87 317 0.0 1.0 0.00 0.00 0.00 68 1016.1
20260905141823 86 223 1.0 2.0 0.00 0.00 0.00 69 1016.0
20260905141324 85 324 0.0 2.0 0.00 0.00 0.00 70 1016.0
20260905140819 85 279 1.0 2.0 0.00 0.00 0.00 69 1016.0
20260905140319 85 242 1.0 2.0 0.00 0.00 0.00 70 1015.9
20260905135818 85 75 0.0 2.0 0.00 0.00 0.00 69 1015.9
20260905135314 85 23 1.0 2.0 0.00 0.00 0.00 70 1015.9
20260905134810 85 208 4.0 4.0 0.00 0.00 0.00 69 1016.1
20260905134308 85 260 1.0 1.0 0.00 0.00 0.00 70 1015.9
20260905133808 85 279 1.0 2.0 0.00 0.00 0.00 70 1015.9
20260905133304 85 192 1.0 2.0 0.00 0.00 0.00 70 1016.1
20260905132802 85 357 0.0 1.0 0.00 0.00 0.00 71 1016.0
20260905132258 84 307 0.0 1.0 0.00 0.00 0.00 74 1015.9
20260905131753 83 339 0.0 1.0 0.00 0.00 0.00 74 1015.8
20260905131248 83 217 1.0 1.0 0.00 0.00 0.00 75 1015.7
20260905130743 82 172 0.0 1.0 0.00 0.00 0.00 78 1015.9
20260905130242 82 65 0.0 0.0 0.00 0.00 0.00 78 1015.8
20260905125738 81 102 1.0 1.0 0.00 0.00 0.00 79 1015.8
20260905125233 80 64 0.0 1.0 0.00 0.00 0.00 82 1015.8
20260905124730 78 63 0.0 1.0 0.00 0.00 0.00 86 1015.8
20260905124225 77 56 0.0 0.0 0.00 0.00 0.00 88 1015.7
20260905123720 76 68 0.0 1.0 0.00 0.00 0.00 88 1015.7
20260905123217 76 67 0.0 1.0 0.00 0.00 0.00 89 1015.5
20260905122716 75 50 0.0 1.0 0.00 0.00 0.00 90 1015.6
20260905122211 75 55 0.0 1.0 0.00 0.00 0.00 91 1015.5
20260905121706 74 55 0.0 0.0 0.00 0.00 0.00 91 1015.5
20260905121202 74 53 0.0 0.0 0.00 0.00 0.00 91 1015.4
20260905120701 74 58 0.0 0.0 0.00 0.00 0.00 91 1015.3
20260905120155 74 57 0.0 0.0 0.00 0.00 0.00 91 1015.4
20260905115655 73 71 0.0 0.0 0.00 0.00 0.00 91 1015.4
20260905115150 73 59 0.0 0.0 0.00 0.00 0.00 91 1015.3
20260905114650 73 53 0.0 0.0 0.00 0.00 0.00 91 1015.2
20260905114148 73 88 0.0 1.0 0.00 0.00 0.00 92 1015.0
20260905113643 73 74 0.0 1.0 0.00 0.00 0.00 92 1015.0
20260905113139 73 54 0.0 0.0 0.00 0.00 0.00 91 1014.9
20260905112633 73 57 0.0 0.0 0.00 0.00 0.00 91 1015.1
20260905112129 73 57 0.0 0.0 0.00 0.00 0.00 90 1015.1
20260905111623 74 22 0.0 0.0 0.00 0.00 0.00 90 1015.0
20260905111122 74 49 0.0 0.0 0.00 0.00 0.00 90 1014.9
20260905110622 74 60 0.0 0.0 0.00 0.00 0.00 90 1015.0
20260905110117 74 33 0.0 0.0 0.00 0.00 0.00 90 1014.9
20260905105612 74 69 1.0 1.0 0.00 0.00 0.00 90 1015.0
20260905105111 74 45 0.0 0.0 0.00 0.00 0.00 89 1014.8
20260905104607 74 46 0.0 0.0 0.00 0.00 0.00 89 1015.0
20260905104106 75 53 0.0 0.0 0.00 0.00 0.00 89 1015.0
20260905103556 75 51 0.0 0.0 0.00 0.00 0.00 89 1014.9
20260905103052 75 45 0.0 0.0 0.00 0.00 0.00 89 1014.9
20260905102547 75 50 0.0 0.0 0.00 0.00 0.00 89 1014.9
20260905102044 75 47 0.0 0.0 0.00 0.00 0.00 88 1015.1
20260905101542 75 49 0.0 0.0 0.00 0.00 0.00 88 1015.2
20260905101041 75 46 0.0 0.0 0.00 0.00 0.00 88 1014.9
20260905100537 75 51 0.0 0.0 0.00 0.00 0.00 88 1014.9
20260905100037 75 56 0.0 1.0 0.00 0.00 0.00 88 1015.2
20260905095531 75 40 0.0 1.0 0.00 0.00 0.00 88 1015.2
20260905095027 75 57 0.0 0.0 0.00 0.00 0.00 88 1015.0
20260905094522 75 46 0.0 0.0 0.00 0.00 0.00 88 1014.8
20260905094021 75 49 0.0 1.0 0.00 0.00 0.00 88 1015.0
20260905093515 75 48 0.0 0.0 0.00 0.00 0.00 87 1014.9
20260905093012 75 46 0.0 0.0 0.00 0.00 0.00 87 1014.8
20260905092512 75 51 0.0 0.0 0.00 0.00 0.00 88 1014.7
20260905092008 75 57 0.0 0.0 0.00 0.00 0.00 88 1014.8
20260905091502 75 69 0.0 0.0 0.00 0.00 0.00 88 1014.9
20260905091002 75 34 0.0 0.0 0.00 0.00 0.00 87 1014.9
20260905090456 76 58 0.0 0.0 0.00 0.00 0.00 87 1014.9
20260905085955 76 87 0.0 1.0 0.00 0.00 0.00 87 1015.0
20260905085455 76 82 0.0 1.0 0.00 0.00 0.00 87 1014.7
20260905084952 76 47 0.0 0.0 0.00 0.00 0.00 87 1014.9
20260905084451 76 43 0.0 0.0 0.00 0.00 0.00 87 1014.9
20260905083951 76 53 0.0 0.0 0.00 0.00 0.00 88 1014.8
20260905083447 76 44 0.0 0.0 0.00 0.00 0.00 87 1014.9
20260905082942 76 44 0.0 0.0 0.00 0.00 0.00 88 1014.9
20260905082438 75 45 0.0 0.0 0.00 0.00 0.00 88 1015.0
20260905081933 75 47 0.0 0.0 0.00 0.00 0.00 88 1015.0
20260905081428 75 51 0.0 0.0 0.00 0.00 0.00 88 1015.1
20260905080927 75 66 0.0 0.0 0.00 0.00 0.00 88 1015.0
20260905080422 76 43 0.0 0.0 0.00 0.00 0.00 88 1015.1
20260905075921 76 42 0.0 0.0 0.00 0.00 0.00 88 1015.1
20260905075421 76 46 0.0 0.0 0.00 0.00 0.00 88 1015.2
20260905074919 76 46 0.0 0.0 0.00 0.00 0.00 87 1015.1
20260905074415 76 46 0.0 0.0 0.00 0.00 0.00 87 1015.2
20260905073911 76 46 0.0 0.0 0.00 0.00 0.00 86 1015.1
20260905073406 76 48 0.0 0.0 0.00 0.00 0.00 86 1015.2
20260905072902 76 44 0.0 0.0 0.00 0.00 0.00 86 1015.4
20260905072356 76 45 0.0 0.0 0.00 0.00 0.00 86 1015.4
20260905071852 76 45 0.0 0.0 0.00 0.00 0.00 86 1015.3
20260905071349 76 82 1.0 1.0 0.00 0.00 0.00 86 1015.4
20260905070848 76 52 0.0 0.0 0.00 0.00 0.00 86 1015.4
20260905070345 76 46 0.0 0.0 0.00 0.00 0.00 87 1015.4
20260905065844 76 48 0.0 0.0 0.00 0.00 0.00 86 1015.5
20260905065342 76 48 0.0 0.0 0.00 0.00 0.00 86 1015.4
20260905064838 76 48 0.0 0.0 0.00 0.00 0.00 86 1015.2
20260905064333 77 52 0.0 0.0 0.00 0.00 0.00 85 1015.4
20260905063832 77 52 0.0 0.0 0.00 0.00 0.00 86 1015.2
20260905063328 77 38 0.0 0.0 0.00 0.00 0.00 85 1015.3
20260905062824 77 33 0.0 0.0 0.00 0.00 0.00 86 1015.5
20260905062319 77 17 0.0 0.0 0.00 0.00 0.00 86 1015.5
20260905061814 77 23 0.0 0.0 0.00 0.00 0.00 86 1015.5
20260905061313 77 46 0.0 0.0 0.00 0.00 0.00 85 1015.4
20260905060808 77 45 0.0 0.0 0.00 0.00 0.00 84 1015.5
20260905060304 77 45 0.0 0.0 0.00 0.00 0.00 84 1015.5
20260905055803 78 46 0.0 0.0 0.00 0.00 0.00 83 1015.5
20260905055258 78 45 0.0 0.0 0.00 0.00 0.00 83 1015.6
20260905054753 78 45 0.0 0.0 0.00 0.00 0.00 83 1015.4
20260905054250 78 52 0.0 0.0 0.00 0.00 0.00 81 1015.3
20260905053748 79 51 0.0 0.0 0.00 0.00 0.00 81 1015.3
20260905053244 79 52 0.0 0.0 0.00 0.00 0.00 81 1015.5
20260905052743 79 55 0.0 0.0 0.00 0.00 0.00 80 1015.3
20260905052238 79 54 0.0 0.0 0.00 0.00 0.00 79 1015.6
20260905051738 80 50 0.0 0.0 0.00 0.00 0.00 79 1015.4
20260905051235 80 64 0.0 0.0 0.00 0.00 0.00 79 1015.6
20260905050731 80 53 0.0 1.0 0.00 0.00 0.00 78 1015.4
20260905050227 80 52 0.0 0.0 0.00 0.00 0.00 78 1015.6
20260905045727 80 52 0.0 0.0 0.00 0.00 0.00 78 1015.4
20260905045223 81 40 0.0 0.0 0.00 0.00 0.00 77 1015.4
20260905044717 81 47 0.0 1.0 0.00 0.00 0.00 76 1015.4
20260905044213 81 35 0.0 0.0 0.00 0.00 0.00 76 1015.5
20260905043712 82 43 0.0 0.0 0.00 0.00 0.00 74 1015.3
20260905043207 82 33 0.0 0.0 0.00 0.00 0.00 73 1015.3
20260905042707 83 44 0.0 0.0 0.00 0.00 0.00 72 1015.1
20260905042206 82 226 2.0 2.0 0.00 0.00 0.00 73 1015.3
20260905041702 82 182 2.0 2.0 0.00 0.00 0.00 74 1015.1
20260905041157 82 98 0.0 1.0 0.00 0.00 0.00 72 1015.2
20260905040652 83 100 1.0 2.0 0.00 0.00 0.00 71 1015.4
20260905040151 83 240 1.0 2.0 0.00 0.00 0.00 71 1015.1
20260905035645 82 181 1.0 2.0 0.00 0.00 0.00 72 1015.2
20260905035142 82 131 0.0 1.0 0.00 0.00 0.00 73 1015.2
20260905034638 81 193 0.0 3.0 0.00 0.00 0.00 75 1015.0
20260905034137 81 29 0.0 0.0 0.00 0.00 0.00 76 1015.3
20260905033636 81 97 0.0 1.0 0.00 0.00 0.00 76 1015.4
20260905033132 80 87 1.0 1.0 0.00 0.00 0.00 77 1015.2
20260905032632 80 98 1.0 1.0 0.00 0.00 0.00 77 1015.3
20260905032132 80 46 0.0 1.0 0.00 0.00 0.00 77 1015.5
20260905031628 81 57 0.0 0.0 0.00 0.00 0.00 77 1015.3
20260905031124 81 57 0.0 1.0 0.00 0.00 0.00 76 1015.6
20260905030624 80 53 0.0 0.0 0.00 0.00 0.00 77 1015.5
20260905030119 81 21 0.0 1.0 0.00 0.00 0.00 77 1015.4
20260905025614 81 320 0.0 1.0 0.00 0.00 0.00 76 1015.6
20260905025109 82 36 0.0 0.0 0.00 0.00 0.00 75 1015.5
20260905024605 82 40 0.0 0.0 0.00 0.00 0.00 74 1015.2
20260905024100 82 45 0.0 0.0 0.00 0.00 0.00 74 1015.4
20260905023555 82 33 0.0 0.0 0.00 0.00 0.00 75 1015.5
20260905023050 82 46 0.0 0.0 0.00 0.00 0.00 74 1015.4
20260905022549 82 30 0.0 0.0 0.00 0.00 0.00 74 1015.2
20260905022045 83 56 0.0 0.0 0.00 0.00 0.00 73 1015.0
20260905021544 83 59 0.0 0.0 0.00 0.00 0.00 73 1015.1
20260905021040 83 50 0.0 0.0 0.00 0.00 0.00 72 1014.9
20260905020539 83 53 0.0 0.0 0.00 0.00 0.00 71 1014.9
20260905020035 83 62 1.0 1.0 0.00 0.00 0.00 71 1015.1
20260905015532 83 42 0.0 0.0 0.00 0.00 0.00 73 1014.9
20260905015027 83 54 0.0 0.0 0.00 0.00 0.00 72 1014.9
20260905014522 83 50 0.0 0.0 0.00 0.00 0.00 72 1014.8
20260905014018 83 39 0.0 1.0 0.00 0.00 0.00 73 1014.7
20260905013514 83 96 0.0 1.0 0.00 0.00 0.00 73 1014.8
20260905013009 84 49 0.0 0.0 0.00 0.00 0.00 72 1014.7